Weather History for KDYT - March, 2014

Change the Weather History Date:

Monday, March 17, 2014

  Actual Average Record
Temperature  
Mean Temperature 26 °F -  
Max Temperature 30 °F 35 °F 60 °F (1968)
Min Temperature 21 °F 18 °F -10 °F (1967)
Degree Days  
Heating Degree Days 40    
Moisture  
Dew Point 16 °F    
Average Humidity 68    
Maximum Humidity 86    
Minimum Humidity 50    
Precipitation  
Precipitation 0.00 in - - ()
Sea Level Pressure  
Sea Level Pressure 29.75 in    
Wind  
Wind Speed 0 mph (South)    
Max Wind Speed 7 mph    
Max Gust Speed 20 mph    
Visibility 10 miles    
Events Snow    
Averages and records for this station are not official NWS values.
T = Trace of Precipitation, MM = Missing Value Source: NWS Daily Summary

Daily Weather History Graph

Daily Weather History Graph

Search for Another Location

Airport or City:

Trip Planner

Search our weather history database for the weather conditions in past years. The results will help you decide how hot, cold, wet, or windy it might be!

Date:

Astronomy

Mar. 17, 2014 Rise Set
Actual Time 7:16 AM CDT 7:16 PM CDT
Civil Twilight 6:46 AM CDT 7:46 PM CDT
Nautical Twilight 6:11 AM CDT 8:22 PM CDT
Astronomical Twilight 5:35 AM CDT 8:58 PM CDT
Moon 8:40 PM CDT (3/17) 7:28 AM CDT (3/17)
Length of Visible Light 13h 00m
Length of Day
11h 59m
Full, 99% of the Moon is Illuminated
Mar 17
Full
Mar 23
Last Quarter
Mar 30
New
Apr 7
First Quarter
Apr 15
Full

Hourly Weather History & Observations

Time (CDT) Temp. Windchill Dew Point Humidity Pressure Visibility Wind Dir Wind Speed Gust Speed Precip Events Conditions
12:13 AM 21.2 °F - 5.0 °F 50% 30.01 in 10.0 mi Calm Calm - N/A   Overcast
12:33 AM 21.2 °F - 6.8 °F 54% 30.00 in 10.0 mi Calm Calm - N/A   Overcast
12:54 AM 21.2 °F - 6.8 °F 54% 29.98 in 10.0 mi Calm Calm - N/A   Overcast
1:13 AM 21.2 °F - 6.8 °F 54% 29.96 in 10.0 mi Calm Calm - N/A   Overcast
1:33 AM 21.2 °F - 6.8 °F 54% 29.95 in 10.0 mi Calm Calm - N/A   Overcast
1:54 AM 21.2 °F - 6.8 °F 54% 29.94 in 10.0 mi Calm Calm - N/A   Overcast
2:13 AM 21.2 °F - 6.8 °F 54% 29.93 in 10.0 mi Calm Calm - N/A   Overcast
2:33 AM 21.2 °F - 8.6 °F 58% 29.90 in 10.0 mi Calm Calm - N/A   Overcast
2:54 AM 21.2 °F - 8.6 °F 58% 29.90 in 10.0 mi Calm Calm - N/A   Overcast
3:13 AM 21.2 °F - 8.6 °F 58% 29.88 in 10.0 mi Calm Calm - N/A   Overcast
3:33 AM 21.2 °F - 8.6 °F 58% 29.86 in 10.0 mi Calm Calm - N/A   Overcast
3:54 AM 21.2 °F - 8.6 °F 58% 29.84 in 10.0 mi Calm Calm - N/A   Overcast
4:13 AM 21.2 °F - 10.4 °F 63% 29.82 in 10.0 mi Calm Calm - N/A Snow Light Snow
4:33 AM 21.2 °F - 10.4 °F 63% 29.82 in 10.0 mi Calm Calm - N/A   Overcast
4:54 AM 21.2 °F - 12.2 °F 68% 29.81 in 7.0 mi Calm Calm - N/A Snow Light Snow
5:13 AM 21.2 °F - 12.2 °F 68% 29.80 in 5.0 mi Calm Calm - N/A Snow Light Snow
5:33 AM 21.2 °F - 12.2 °F 68% 29.79 in 7.0 mi Calm Calm - N/A Snow Light Snow
5:54 AM 21.2 °F - 12.2 °F 68% 29.78 in 4.0 mi Calm Calm - N/A Snow Light Snow
6:13 AM 21.2 °F - 12.2 °F 68% 29.78 in 10.0 mi Calm Calm - N/A Snow Light Snow
6:33 AM 21.2 °F - 12.2 °F 68% 29.77 in 10.0 mi Calm Calm - N/A   Overcast
6:54 AM 21.2 °F - 12.2 °F 68% 29.76 in 10.0 mi Calm Calm - N/A Snow Light Snow
7:13 AM 21.2 °F - 12.2 °F 68% 29.76 in 10.0 mi Calm Calm - N/A   Overcast
7:33 AM 21.2 °F - 12.2 °F 68% 29.75 in 10.0 mi Calm Calm - N/A   Overcast
7:54 AM 21.2 °F - 14.0 °F 74% 29.75 in 10.0 mi Calm Calm - N/A   Overcast
8:14 AM 21.2 °F - 15.8 °F 80% 29.74 in 10.0 mi Calm Calm - N/A   Overcast
8:33 AM 21.2 °F - 15.8 °F 80% 29.73 in 10.0 mi Calm Calm - N/A   Overcast
8:53 AM 23.0 °F 17.0 °F 15.8 °F 74% 29.72 in 10.0 mi South 4.6 mph - N/A   Overcast
9:14 AM 23.0 °F - 15.8 °F 74% 29.72 in 10.0 mi Calm Calm - N/A   Overcast
9:33 AM 23.0 °F - 15.8 °F 74% 29.70 in 10.0 mi Calm Calm - N/A   Overcast
9:53 AM 24.8 °F - 15.8 °F 69% 29.69 in 10.0 mi Calm Calm - N/A   Overcast
10:13 AM 24.8 °F - 15.8 °F 69% 29.70 in 10.0 mi Calm Calm - N/A   Overcast
10:33 AM 24.8 °F 16.9 °F 15.8 °F 69% 29.69 in 10.0 mi South 6.9 mph 19.6 mph N/A   Overcast
10:54 AM 26.6 °F 21.2 °F 17.6 °F 69% 29.68 in 10.0 mi South 4.6 mph 17.3 mph N/A   Overcast
11:13 AM 26.6 °F - 17.6 °F 69% 29.68 in 10.0 mi Calm Calm - N/A   Overcast
11:34 AM 26.6 °F - 17.6 °F 69% 29.68 in 10.0 mi Calm Calm - N/A   Overcast
11:53 AM 26.6 °F 21.2 °F 17.6 °F 69% 29.67 in 10.0 mi South 4.6 mph - N/A   Overcast
12:13 PM 26.6 °F - 17.6 °F 69% 29.67 in 10.0 mi Calm Calm - N/A   Overcast
12:33 PM 28.4 °F - 19.4 °F 69% 29.67 in 10.0 mi Calm Calm - N/A   Overcast
12:53 PM 28.4 °F - 19.4 °F 69% 29.67 in 10.0 mi Calm Calm - N/A   Overcast
1:14 PM 28.4 °F - 19.4 °F 69% 29.67 in 10.0 mi Calm Calm - N/A   Overcast
1:33 PM 28.4 °F - 19.4 °F 69% 29.66 in 10.0 mi Calm Calm - N/A   Overcast
1:53 PM 28.4 °F - 19.4 °F 69% 29.66 in 10.0 mi Calm Calm - N/A   Overcast
2:14 PM 28.4 °F 24.6 °F 19.4 °F 69% 29.65 in 10.0 mi SSW 3.5 mph - N/A   Overcast
2:33 PM 28.4 °F - 19.4 °F 69% 29.65 in 10.0 mi Calm Calm - N/A   Overcast
2:53 PM 30.2 °F - 19.4 °F 64% 29.64 in 10.0 mi Calm Calm - N/A   Overcast
3:14 PM 30.2 °F - 19.4 °F 64% 29.64 in 10.0 mi Calm Calm - N/A   Overcast
3:33 PM 28.4 °F - 19.4 °F 69% 29.65 in 10.0 mi Calm Calm - N/A   Overcast
3:53 PM 28.4 °F - 19.4 °F 69% 29.65 in 10.0 mi Calm Calm - N/A   Overcast
4:13 PM 28.4 °F - 19.4 °F 69% 29.65 in 10.0 mi Calm Calm - N/A   Overcast
4:33 PM 28.4 °F - 19.4 °F 69% 29.65 in 10.0 mi Calm Calm - N/A   Overcast
4:54 PM 28.4 °F - 19.4 °F 69% 29.65 in 10.0 mi Calm Calm - N/A   Overcast
5:13 PM 28.4 °F - 19.4 °F 69% 29.65 in 10.0 mi Calm Calm - N/A   Overcast
5:33 PM 28.4 °F - 19.4 °F 69% 29.65 in 10.0 mi Calm Calm - N/A   Overcast
5:54 PM 28.4 °F - 19.4 °F 69% 29.67 in 10.0 mi Calm Calm - N/A   Overcast
6:13 PM 28.4 °F - 19.4 °F 69% 29.67 in 10.0 mi Calm Calm - N/A   Overcast
6:33 PM 28.4 °F - 19.4 °F 69% 29.68 in 10.0 mi Calm Calm - N/A   Overcast
6:54 PM 28.4 °F - 19.4 °F 69% 29.68 in 10.0 mi Calm Calm - N/A   Overcast
7:13 PM 28.4 °F - 19.4 °F 69% 29.68 in 10.0 mi Calm Calm - N/A   Overcast
7:33 PM 28.4 °F - 21.2 °F 74% 29.69 in 10.0 mi Calm Calm - N/A   Overcast
7:54 PM 28.4 °F - 19.4 °F 69% 29.70 in 10.0 mi Calm Calm - N/A   Overcast
8:13 PM 28.4 °F - 21.2 °F 74% 29.71 in 10.0 mi Calm Calm - N/A   Overcast
8:33 PM 28.4 °F - 21.2 °F 74% 29.73 in 10.0 mi Calm Calm - N/A   Overcast
8:53 PM 28.4 °F - 21.2 °F 74% 29.73 in 10.0 mi Calm Calm - N/A   Overcast
9:14 PM 28.4 °F - 19.4 °F 69% 29.74 in 10.0 mi Calm Calm - N/A   Overcast
9:33 PM 28.4 °F - 21.2 °F 74% 29.74 in 10.0 mi Calm Calm - N/A   Overcast
9:53 PM 28.4 °F - 21.2 °F 74% 29.74 in 10.0 mi Calm Calm - N/A   Overcast
10:13 PM 28.4 °F - 21.2 °F 74% 29.74 in 10.0 mi Calm Calm - N/A   Overcast
10:33 PM 26.6 °F - 23.0 °F 86% 29.75 in 10.0 mi Calm Calm - N/A   Scattered Clouds
10:54 PM 26.6 °F - 21.2 °F 80% 29.76 in 10.0 mi Calm Calm - N/A   Scattered Clouds
11:13 PM 26.6 °F - 21.2 °F 80% 29.76 in 10.0 mi Calm Calm - N/A   Mostly Cloudy
11:33 PM 26.6 °F - 21.2 °F 80% 29.76 in 10.0 mi Calm Calm - N/A   Overcast
11:54 PM 26.6 °F - 21.2 °F 80% 29.76 in 10.0 mi Calm Calm - N/A   Overcast